User: anonymous   Login
Location: Berlin
(52.5200°N, 13.4050°E)
Time: 10:52:20
(UTC+02:00)
Language:

ISS - Orbit

View from above orbital plane
View from above orbital plane
View from above satellite
View from above satellite

Ground track
Ground track

The orbit data is extracted from the following two-line orbital elements,

1 25544U 98067A   17177.55291819  .00016717  00000-0  10270-3 0  9033
2 25544  51.6382 351.6481 0005052 322.8428  37.2374 15.54074156 23207
Epoch (UTC): 26 June 2017 13:16:12
Eccentricity: 0.0005052
inclination: 51.6382°
perigee height: 401 km
apogee height: 408 km
right ascension of ascending node: 351.6481°
argument of perigee: 322.8428°
revolutions per day: 15.54074156
mean anomaly at epoch: 37.2374°
orbit number at epoch: 2320

The dashed part of the orbit path shows where the satellite is in the earth's shadow,  

DLR